Regional Weather Roundup
Issued by NWS

Home | Current Version | Previous Version | Graphics & Text | Print | Product List | Glossary On
Versions: 1 2 3 4 5 6 7 8 9 10 11 12 13 14 15 16 17 18 19 20 21 22 23 24 25 26 27 28 29 30 31 32 33 34 35 36 37 38 39 40 41 42 43 44 45 46 47 48 49 50
000
ASUS45 KBOU 152207
RWRCO

WEATHER ROUNDUP FOR COLORADO
NATIONAL WEATHER SERVICE DENVER/BOULDER CO
300 PM MST SUN JAN 15 2017

NOTE: "FAIR" INDICATES FEW OR NO CLOUDS BELOW 12000 FEET WITH NO
SIGNIFICANT WEATHER AND/OR OBSTRUCTIONS TO VISIBILITY.

COZ001>005-013-030-031-152300-
...NORTHWEST COLORADO...

CITY           SKY/WX    TMP DP  RH WIND       PRES   REMARKS
CRAIG          CLOUDY    24  20  84 W8        30.00S WCI  15
HAYDEN         CLOUDY    23  18  80 W9        29.98R WCI  13
MEEKER         CLOUDY    27  23  85 W9        29.98R WCI  18
MOUNT WERNER   NOT AVBL
STEAMBOAT SPGS CLOUDY    24  22  94 CALM      29.96R
WALDEN           N/A    N/A N/A N/A CALM      29.97S
$$

COZ006>008-011-152300-
...WEST CENTRAL VALLEYS...

CITY           SKY/WX    TMP DP  RH WIND       PRES   REMARKS
GRAND JUNCTION CLOUDY    44  33  65 NW5       29.91F
MONTROSE       CLOUDY    38  34  85 NW8       29.93S
EAGLE          MOSUNNY   34  25  69 CALM      29.93F
RIFLE          FAIR      41  30  65 NW12      29.91S
DELTA          CLOUDY    42  34  74 CALM      29.92F
NUCLA          CLOUDY    37  34  87 CALM      29.94F
$$

COZ017>023-064>068-152300-
...SOUTHWEST COLORADO...

CITY           SKY/WX    TMP DP  RH WIND       PRES   REMARKS
DURANGO        CLOUDY    43  36  76 S7        29.83F
CORTEZ         CLOUDY    40  39  97 W9        29.87F
PAGOSA SPRINGS CLOUDY    39  37  92 CALM      29.85S
TELLURIDE      CLOUDY    34  31  88 W9        29.91R WCI  27
WOLF CREEK PAS CLOUDY    25  25 100 N5        29.96F WCI  19
$$

COZ009-010-012-014-032>034-037-058>063-152300-
...CENTRAL COLORADO...

CITY           SKY/WX    TMP DP  RH WIND       PRES   REMARKS
ASPEN          FAIR      32  26  78 NW3       29.87F
BUENA VISTA    CLOUDY    33  27  79 CALM      29.91S
COPPER MTN     CLOUDY    34  25  69 E5        29.96F WCI  30
BERTHOUD PASS  NOT AVBL
COTTONWOOD PAS CLOUDY    32  28  86 CALM      29.93S
GUNNISON       CLOUDY    19  18  95 CALM      29.91F
KREMMLING      CLOUDY    28  23  80 CALM      29.96F
LEADVILLE      CLOUDY    29  23  78 S6        29.89F WCI  23
MONARCH PASS   CLOUDY    23  21  93 E15       30.02F WCI  10
SALIDA         CLOUDY    36  31  83 SE5       29.98S
SUNLIGHT         N/A     27  23  86 NE5       29.98R FOG     WCI  21
WILKERSON PASS LGT SNOW  27  25  93 NE8       29.97S WCI  18
$$

COZ069>075-152300-
...SAN LUIS VALLEY/SANGRE DE CRISTO MOUNTAINS...

CITY           SKY/WX    TMP DP  RH WIND       PRES   REMARKS
ALAMOSA        LGT SNOW  33  33 100 CALM      29.85S FOG
LA VETA PASS   NOT AVBL
SAGUACHE       PTSUNNY   36  32  87 SE7       29.86S
$$

COZ035-036-038>040-152300-
...NORTHERN COLORADO FRONT RANGE...

CITY           SKY/WX    TMP DP  RH WIND       PRES   REMARKS
DENVER INTL AP CLOUDY    35  25  66 CALM      29.96S
DMNS CITY PARK   N/A     35  28  75 E9        29.97S WCI  28
AURORA         LGT SNOW  33  28  81 CALM      29.96S FOG
FRONT RANGE AP CLOUDY    36  27  69 W7        29.97
ERIE MUNI ARPT CLOUDY    35  28  75 CALM      29.97S
BOULDER MUN AP CLOUDY    36  27  69 CALM      29.96S
CENTENNIAL     LGT SNOW  32  29  88 N3        29.96R FOG
BROOMFIELD     CLOUDY    36  28  75 CALM      29.96F
FORT COLLINS   CLOUDY    36  25  64 CALM      29.98S
LONGMONT       CLOUDY    38  28  64 CALM      29.99S
$$

COZ041-046-047-076>085-087-088-152300-
...PIKES PEAK/PALMER DIVIDE AND SOUTHERN FOOTHILLS...

CITY           SKY/WX    TMP DP  RH WIND       PRES   REMARKS
COLO. SPRINGS  CLOUDY    33  31  92 S8        29.94S FOG     WCI  26
A. F. ACADEMY  CLOUDY    34  28  79 N6        29.92S WCI  29
SCHRIEVER AFB  NOT AVBL
ELLICOTT       CLOUDY   N/A N/A N/A N6        29.92S
FALCON         CLOUDY    33  27  81 N9        29.94S WCI  25
FORT CARSON    PTSUNNY   34  32  93 S5        29.95S FOG     WCI  30
LIMON          CLOUDY    31  29  92 N7        29.96S WCI  24
MONUMENT HILL  CLOUDY    28  28 100 NW7       29.96R FOG     WCI  21
TRINIDAD       CLOUDY    32  28  85 CALM      29.94S FOG
$$

COZ042>045-048>051-090-091-152300-
...NORTHEAST COLORADO...

CITY           SKY/WX    TMP DP  RH WIND       PRES   REMARKS
GREELEY ARPT   CLOUDY    36  24  62 CALM      29.99S
AKRON          LGT SNOW  29  25  85 N6        29.98S FOG     WCI  23
BURLINGTON     CLOUDY    32  30  92 NE6       29.99S WCI  26
WRAY           NOT AVBL
STERLING       LGT SNOW  32  27  80 CALM      30.00S
HOLYOKE        MIX PCPN  34  32  93 CALM      30.03S
FORT MORGAN    CLOUDY    33  26  74 E5        30.00R WCI  29
$$

COZ086-089-092>099-152300-
...SOUTHEAST COLORADO...

CITY           SKY/WX    TMP DP  RH WIND       PRES   REMARKS
PUEBLO         CLOUDY    35  30  82 CALM      29.95F HAZE
LA JUNTA       LGT SNOW  33  30  88 NW3       29.97F VSB 1
LAMAR          MIX PCPN  33  29  85 N3        29.97F
SPRINGFIELD      N/A     31  31 100 NE7       29.96R WCI  24
$$



USA.gov is the U.S. government's official web portal to all federal, state and local government web resources and services.